| time (UTC) | temp F | wind direction | speed knots | gust knots | rain 1hr in | rain 24hr in | rain mn in | humidity % | barometer mb |
| 20260505124541 | 61 | 199 | 7.0 | 13.0 | 0.00 | 0.01 | 0.00 | 64 | 1006.9 |
| 20260505123042 | 59 | 205 | 5.2 | 13.0 | 0.00 | 0.01 | 0.00 | 66 | 1006.9 |
| 20260505121539 | 57 | 209 | 7.0 | 13.9 | 0.00 | 0.01 | 0.00 | 69 | 1007.0 |
| 20260505120049 | 55 | 193 | 5.2 | 9.6 | 0.00 | 0.01 | 0.00 | 73 | 1007.1 |
| 20260505114544 | 54 | 205 | 2.6 | 7.8 | 0.00 | 0.01 | 0.00 | 72 | 1007.0 |
| 20260505113041 | 53 | 178 | 1.7 | 6.1 | 0.00 | 0.01 | 0.00 | 74 | 1007.0 |
| 20260505111537 | 51 | 164 | 1.7 | 5.2 | 0.00 | 0.01 | 0.00 | 77 | 1006.9 |
| 20260505101550 | 48 | 175 | 1.7 | 5.2 | 0.00 | 0.01 | 0.00 | 81 | 1007.0 |
| 20260505100039 | 47 | 188 | 0.9 | 4.3 | 0.00 | 0.01 | 0.00 | 83 | 1006.8 |
| 20260505094541 | 46 | 182 | 0.9 | 4.3 | 0.00 | 0.01 | 0.00 | 84 | 1006.7 |
| 20260505093037 | 46 | 160 | 1.7 | 4.3 | 0.00 | 0.01 | 0.00 | 85 | 1006.7 |
| 20260505091555 | 45 | 181 | 0.9 | 3.5 | 0.00 | 0.01 | 0.00 | 86 | 1006.8 |
| 20260505090042 | 45 | 184 | 1.7 | 4.3 | 0.00 | 0.01 | 0.00 | 86 | 1006.9 |
| 20260505084538 | 44 | 189 | 0.9 | 4.3 | 0.00 | 0.01 | 0.00 | 87 | 1006.9 |
| 20260505083037 | 45 | 175 | 0.9 | 4.3 | 0.00 | 0.01 | 0.00 | 86 | 1006.9 |
| 20260505081537 | 44 | 181 | 0.0 | 3.5 | 0.00 | 0.01 | 0.00 | 87 | 1006.9 |
| 20260505080036 | 44 | 0 | 0.9 | 3.5 | 0.00 | 0.01 | 0.00 | 86 | 1006.8 |
| 20260505074543 | 44 | 163 | 0.9 | 3.5 | 0.00 | 0.01 | 0.00 | 86 | 1006.9 |
| 20260505073050 | 44 | 186 | 0.9 | 3.5 | 0.00 | 0.01 | 0.00 | 85 | 1006.9 |
| 20260505071551 | 45 | 226 | 1.7 | 3.5 | 0.00 | 0.01 | 0.00 | 85 | 1007.0 |
| 20260505070039 | 44 | 191 | 0.9 | 4.3 | 0.00 | 0.01 | 0.00 | 86 | 1006.9 |
| 20260505064538 | 44 | 176 | 1.7 | 4.3 | 0.00 | 0.01 | 0.00 | 86 | 1006.9 |
| 20260505063035 | 45 | 194 | 1.7 | 6.1 | 0.00 | 0.01 | 0.00 | 85 | 1006.9 |
| 20260505061546 | 44 | 221 | 0.9 | 3.5 | 0.00 | 0.01 | 0.00 | 87 | 1006.9 |
| 20260505060047 | 44 | 184 | 0.9 | 3.5 | 0.00 | 0.01 | 0.00 | 87 | 1006.8 |
| 20260505054539 | 43 | 163 | 0.0 | 3.5 | 0.00 | 0.01 | 0.00 | 88 | 1006.9 |
| 20260505053038 | 43 | 101 | 1.7 | 6.1 | 0.00 | 0.01 | 0.00 | 89 | 1006.7 |
| 20260505051548 | 44 | 96 | 3.5 | 7.0 | 0.00 | 0.01 | 0.00 | 88 | 1006.8 |
| 20260505041538 | 46 | 77 | 4.3 | 6.1 | 0.00 | 0.01 | 0.00 | 86 | 1006.6 |
| 20260505040039 | 46 | 93 | 4.3 | 6.1 | 0.00 | 0.01 | 0.00 | 86 | 1006.8 |
| 20260505034535 | 47 | 89 | 4.3 | 7.8 | 0.00 | 0.01 | 0.01 | 84 | 1006.7 |
| 20260505033039 | 48 | 88 | 2.6 | 6.1 | 0.00 | 0.01 | 0.01 | 82 | 1006.8 |
| 20260505031539 | 48 | 86 | 2.6 | 6.1 | 0.00 | 0.01 | 0.01 | 83 | 1006.9 |
| 20260505030039 | 48 | 72 | 0.9 | 3.5 | 0.00 | 0.01 | 0.01 | 83 | 1007.0 |
| 20260505024536 | 48 | 93 | 0.9 | 5.2 | 0.00 | 0.01 | 0.01 | 82 | 1006.8 |
| 20260505023041 | 48 | 98 | 2.6 | 7.0 | 0.00 | 0.01 | 0.01 | 81 | 1007.0 |
| 20260505021538 | 48 | 111 | 1.7 | 6.1 | 0.00 | 0.01 | 0.01 | 80 | 1007.0 |
| 20260505020036 | 48 | 97 | 1.7 | 3.5 | 0.00 | 0.01 | 0.01 | 80 | 1007.0 |
| 20260505014536 | 49 | 77 | 0.9 | 1.7 | 0.00 | 0.01 | 0.01 | 79 | 1006.8 |
| 20260505013058 | 50 | 77 | 0.9 | 2.6 | 0.00 | 0.01 | 0.01 | 77 | 1006.5 |
| 20260505011541 | 50 | 77 | 1.7 | 3.5 | 0.00 | 0.01 | 0.01 | 77 | 1006.5 |
| 20260505010037 | 49 | 70 | 0.0 | 1.7 | 0.00 | 0.01 | 0.01 | 78 | 1006.4 |
| 20260505004537 | 50 | 70 | 0.9 | 2.6 | 0.00 | 0.01 | 0.01 | 76 | 1006.4 |
| 20260505003036 | 50 | 68 | 0.9 | 2.6 | 0.00 | 0.01 | 0.01 | 77 | 1006.1 |
| 20260505001536 | 51 | 0 | 0.0 | 0.0 | 0.00 | 0.01 | 0.01 | 77 | 1005.8 |
| 20260505000053 | 51 | 303 | 0.0 | 3.5 | 0.00 | 0.01 | 0.01 | 74 | 1005.7 |
| 20260504234539 | 51 | 319 | 0.9 | 3.5 | 0.00 | 0.01 | 0.01 | 73 | 1005.4 |
| 20260504233041 | 53 | 311 | 0.9 | 6.1 | 0.00 | 0.01 | 0.01 | 70 | 1005.1 |
| 20260504231536 | 54 | 306 | 1.7 | 5.2 | 0.00 | 0.01 | 0.01 | 66 | 1005.0 |
| 20260504230036 | 56 | 299 | 3.5 | 10.4 | 0.00 | 0.01 | 0.01 | 63 | 1004.8 |
| 20260504224535 | 56 | 298 | 3.5 | 12.2 | 0.00 | 0.01 | 0.01 | 62 | 1004.6 |
| 20260504223044 | 57 | 317 | 7.8 | 13.9 | 0.00 | 0.01 | 0.01 | 60 | 1004.6 |
| 20260504221545 | 57 | 320 | 6.1 | 13.0 | 0.00 | 0.01 | 0.01 | 61 | 1004.4 |
| 20260504220042 | 58 | 277 | 7.0 | 16.5 | 0.00 | 0.01 | 0.01 | 60 | 1004.3 |
| 20260504214542 | 57 | 316 | 6.1 | 13.9 | 0.00 | 0.01 | 0.01 | 62 | 1004.2 |
| 20260504213043 | 56 | 300 | 7.8 | 12.2 | 0.00 | 0.01 | 0.01 | 63 | 1004.2 |
| 20260504211539 | 56 | 284 | 5.2 | 10.4 | 0.00 | 0.01 | 0.01 | 67 | 1004.1 |
| 20260504210038 | 55 | 301 | 3.5 | 7.8 | 0.00 | 0.01 | 0.01 | 68 | 1004.1 |
| 20260504204536 | 56 | 280 | 6.1 | 15.6 | 0.00 | 0.03 | 0.01 | 65 | 1003.8 |
| 20260504203037 | 55 | 265 | 7.0 | 14.8 | 0.00 | 0.03 | 0.01 | 67 | 1003.6 |
| 20260504201539 | 56 | 312 | 7.0 | 13.0 | 0.00 | 0.03 | 0.01 | 67 | 1003.5 |
| 20260504200045 | 55 | 281 | 6.1 | 13.9 | 0.00 | 0.03 | 0.01 | 68 | 1003.5 |
| 20260504194537 | 55 | 282 | 5.2 | 14.8 | 0.00 | 0.06 | 0.01 | 69 | 1003.5 |
| 20260504193036 | 54 | 269 | 7.0 | 13.9 | 0.00 | 0.06 | 0.01 | 70 | 1003.5 |
| 20260504191542 | 54 | 256 | 7.0 | 14.8 | 0.00 | 0.06 | 0.01 | 70 | 1003.5 |
| 20260504190036 | 53 | 203 | 7.8 | 15.6 | 0.00 | 0.06 | 0.01 | 71 | 1003.6 |
| 20260504184553 | 53 | 261 | 7.0 | 16.5 | 0.00 | 0.12 | 0.01 | 72 | 1003.8 |
| 20260504183039 | 52 | 279 | 7.8 | 13.0 | 0.00 | 0.12 | 0.01 | 75 | 1003.9 |
| 20260504181538 | 50 | 311 | 3.5 | 8.7 | 0.00 | 0.12 | 0.01 | 83 | 1004.1 |
| 20260504180035 | 50 | 264 | 3.5 | 7.8 | 0.00 | 0.12 | 0.01 | 83 | 1004.2 |
| 20260504174539 | 50 | 286 | 3.5 | 8.7 | 0.01 | 0.18 | 0.01 | 83 | 1004.1 |
| 20260504173037 | 49 | 272 | 3.5 | 8.7 | 0.01 | 0.18 | 0.01 | 83 | 1004.0 |
| 20260504171536 | 49 | 292 | 4.3 | 8.7 | 0.01 | 0.18 | 0.01 | 84 | 1004.0 |